Tracking 29510 objects as of 16-Sep-2024
HD Live streaming from Space Station
objects crossing your sky now

THOR ABLESTAR DEB

Track THOR ABLESTAR DEB now!
10-day predictions


NORAD ID: 119
Int'l Code: 1961-015D
Perigee: 741.1 km
Apogee: 886.6 km
Inclination: 66.7 °
Period: 101.0 minutes
Semi major axis: 7184 km
RCS: 0.2611 m2 (medium)
Launch date: June 29, 1961
Source: United States (US)
Launch site: AIR FORCE EASTERN TEST RANGE (AFETR)

Note: This is SATELLITE DEBRIS
Your satellite tracking list
Your tracking list is empty




NASA's NSSDC Master Catalog

Two Line Element Set (TLE):
1   119U 61015D   24260.22860178  .00004398  00000-0  17926-2 0  9993
2   119  66.7259 249.1510 0101239 358.8375   1.2469 14.25527417267617
Source of the keplerian elements: AFSPC